Regional Weather Roundup
Issued by NWS

Home | Current Version | Previous Version | Text Only | Print | Product List | Glossary Off
Versions: 1 2 3 4 5 6 7 8 9 10 11 12 13 14 15 16 17 18 19 20 21 22 23 24 25 26 27 28 29 30 31 32 33 34 35 36 37 38 39 40 41 42 43 44 45 46 47 48 49 50

000
ASUS43 KOAX 071010
RWRNE

WEATHER ROUNDUP FOR NEBRASKA
NATIONAL WEATHER SERVICE OMAHA NE
500 AM CDT THU MAY 07 2015

NOTES: SATELLITE DATA IS BEING USED TO AUGMENT CLOUD COVER ABOVE
       12000 FEET.
       "FAIR" INDICATES FEW OR NO CLOUDS BELOW 12,000 FEET WITH NO
       SIGNIFICANT WEATHER AND/OR OBSTRUCTIONS TO VISIBILITY.

  * THESE STATIONS DO NOT REPORT WEATHER SUCH AS RAIN...SNOW OR FOG.

NEZ001>004-019>022-054>056-071100-
NEBRASKA PANHANDLE

CITY           SKY/WX    TMP DP  RH WIND       PRES   REMARKS
SCOTTSBLUFF    CLOUDY    48  48 100 NW14      29.84R
ALLIANCE       CLOUDY    48  44  86 NW13      29.80R
CHADRON        CLOUDY    48  45  89 W9        29.80R
KIMBALL        DRIZZLE   45  43  93 NW15G21   29.83S
SIDNEY         CLOUDY    47  43  86 NW17      29.83R
$$

NEZ057>060-069>072-079>082-071100-
SOUTHWEST NEBRASKA

CITY           SKY/WX    TMP DP  RH WIND       PRES   REMARKS
NORTH PLATTE   CLOUDY    54  51  90 NW14      29.72R
IMPERIAL       CLOUDY    51  46  83 NW17      29.77R
LEXINGTON      MOCLDY    55  54  97 W10       29.70R
MCCOOK         LGT RAIN  55  50  83 W10       29.76R
OGALLALA       CLOUDY    51  49  94 NW12G18   29.78R
$$

NEZ005>010-023>029-035>040-094-071100-
NORTH CENTRAL NEBRASKA

CITY           SKY/WX    TMP DP  RH WIND       PRES   REMARKS
VALENTINE      CLOUDY    53  50  89 NW17      29.67S
AINSWORTH      CLOUDY    58  57  96 NW9       29.66R
BROKEN BOW     PTCLDY    55  54  96 SW6       29.66R FOG
O`NEILL        CLOUDY    60  59  97 W9        29.63S FOG
ORD            CLOUDY    58  57  97 SW5       29.63R
THEDFORD       CLOUDY    54  52  95 NW10      29.71R
$$

NEZ041-046>049-061>064-073>077-083>087-071100-
SOUTH CENTRAL NEBRASKA

CITY           SKY/WX    TMP DP  RH WIND       PRES   REMARKS
GRAND ISLAND   CLOUDY    63  60  90 S17G23    29.65S
AURORA         CLOUDY    64  62  94 S16       29.66R
HASTINGS       CLOUDY    62  60  93 S12       29.67R
HOLDREGE       CLOUDY    59  55  87 SW14      29.70R
KEARNEY *      CLOUDY    61  55  82 SW10      29.68R
YORK           CLOUDY    63  61  94 S16       29.66R
$$

NEZ011>018-030>034-042>045-071100-
NORTHEAST NEBRASKA

CITY           SKY/WX    TMP DP  RH WIND       PRES   REMARKS
NORFOLK        CLOUDY    61  58  90 S15       29.63F
ALBION         CLOUDY    62  58  87 S10       29.63S
BLAIR          CLOUDY    60  58  92 SE16      29.71F
COLUMBUS *     CLOUDY    61  54  77 SE12      29.69R
FREMONT        LGT RAIN  61  59  93 SE13      29.69F
TEKAMAH        RAIN      62  60  93 SE25      29.70S
WAYNE          CLOUDY    60  57  91 S17G24    29.64F
$$

NEZ050>053-065>068-078-088>093-071100-
SOUTHEAST NEBRASKA

CITY           SKY/WX    TMP DP  RH WIND       PRES   REMARKS
LINCOLN        CLOUDY    62  59  90 SE14      29.71F THUNDER
OMAHA EPPLEY   LGT RAIN  61  60  97 SE10      29.76F
BEATRICE       CLOUDY    65  61  85 SE3       29.73S
FALLS CITY     MOCLDY    67  57  70 S13       29.74S
NEBRASKA CITY  CLOUDY    65  56  73 SW6       29.76R
PLATTSMOUTH    CLOUDY    60  58  93 NE5       29.77S THUNDER
$$

NEZ044-045-051>053-067-071100-
OMAHA AREA

CITY           SKY/WX    TMP DP  RH WIND       PRES   REMARKS
OMAHA EPPLEY   LGT RAIN  61  60  97 SE10      29.76F
BLAIR          CLOUDY    60  58  92 SE16      29.71F
FREMONT        LGT RAIN  61  59  93 SE13      29.69F
MILLARD        TSTM      61  60  96 SE6       29.74F
OFFUTT AFB     CLOUDY    61  59  94 N3        29.76S
PLATTSMOUTH    CLOUDY    60  58  93 NE5       29.77S THUNDER
WAHOO          LGT RAIN  61  58  90 SE16      29.68F
$$


USA.gov is the U.S. government's official web portal to all federal, state and local government web resources and services.